#timestamp,LO_Frequency,Hit,StdDev 
1609273875.0,286046997.9,P
1609273875.9,286046997.9,N
1609273895.8,286046997.3,N
1609273915.6,286046997.2,N
1609273935.4,286046997.4,N
1609273955.3,286046995.1,Y
1609273975.1,286046996.7,P
1609273995.9,286046997.1,P
1609274015.7,286046996.2,P
1609274035.5,286046993.8,Y
1609274055.4,286046999.0,P
1609274075.2,286047000.1,N
1609274095.0,286046999.7,N
1609274095.9,286046999.7,N
1609274115.8,286047004.2,Y
1609274135.6,286047005.7,P
1609274155.5,286047006.3,N
1609274175.3,286047007.9,N
1609274195.1,286047008.2,N
1609274215.9,286047007.9,N
1609274235.7,286047007.0,N
1609274255.5,286047007.3,N
1609274275.4,286047005.1,N
1609274295.2,286047003.8,N
1609274315.1,286047005.3,N
1609274316.0,286047005.3,N
1609274335.8,286047005.0,N
1609274355.6,286047003.2,N
1609274375.5,286047004.6,N
1609274395.3,286047010.6,Y
1609274415.2,286047001.3,P
1609274435.9,286047001.9,N
1609274455.7,286047001.3,N
1609274475.6,286047002.1,N
1609274495.4,286047001.5,N
1609274515.2,286047003.1,N
1609274535.1,286047003.6,N
1609274536.0,286047003.6,N
1609274555.8,286047005.1,Y
1609274575.7,286047002.6,P
1609274595.5,286047005.9,P
1609274615.3,286047001.5,N
1609274635.2,286047000.4,N
1609274655.0,286047001.9,N
1609274655.9,286047001.9,N
1609274675.8,286047001.0,N
1609274695.6,286046998.1,N
1609274715.4,286047000.4,N
1609274735.3,286047000.9,N
1609274755.1,286046999.6,N
1609274775.9,286046999.6,N
1609274795.7,286046995.8,N
1609274815.5,286046993.7,N
1609274835.4,286046994.5,N
1609274855.2,286046990.6,Y
1609274875.0,286046989.9,P
1609274875.9,286046989.9,N
1609274895.8,286046988.3,N
1609274915.6,286046985.3,Y
1609274935.5,286046992.5,P
1609274955.3,286046993.2,P
1609274975.1,286046990.5,P
1609274995.9,286046991.0,Y
1609275015.7,286046998.3,P
1609275035.6,286046999.4,N
1609275055.4,286046996.5,N
1609275075.2,286046997.9,N
1609275095.1,286046997.9,N
1609275096.0,286046997.9,N
1609275115.8,286046997.6,N
1609275135.7,286046996.3,N
1609275155.5,286046992.2,Y
1609275175.3,286046995.7,P
1609275195.2,286046993.4,P
1609275215.0,286046993.9,P
1609275215.9,286046993.9,Y
1609275235.7,286046998.3,P
1609275255.6,286046999.5,N
1609275275.4,286046998.4,N
1609275325.3,286046998.4,E
1609275335.2,286046998.5,N
1609275355.1,286047002.6,P
1609275356.0,286047002.6,N
1609275375.8,286046999.8,N
1609275395.6,286047001.0,N
1609275415.5,286047000.0,N
1609275435.3,286047000.5,N
1609275455.1,286047002.8,N
1609275475.9,286047002.8,N
1609275495.7,286047000.9,N
1609275515.6,286046998.4,N
1609275535.4,286046998.5,N
1609275555.2,286046998.3,N
1609275575.1,286046996.5,N
1609275576.0,286046996.5,N
1609275595.8,286046998.6,N
